Point Petre, Ontario

9:02 AM EST on February 22, 2017 (GMT -0500)
Point Petre

Weather History for CWQP - October, 2012

Change the Weather History Date:

Saturday, October 6, 2012

  Actual Average (CYTR) Record (CYTR)
Temperature  
Mean Temperature 52 °F -  
Max Temperature 58 °F 59 °F 77 °F (2005)
Min Temperature 47 °F 41 °F 33 °F (1999)
Degree Days  
Heating Degree Days 12    
Growing Degree Days 2 (Base 50)    
Moisture  
Dew Point 43 °F    
Average Humidity 70    
Maximum Humidity 93    
Minimum Humidity 48    
Precipitation  
Precipitation 0.59 in - - ()
Sea Level Pressure  
Sea Level Pressure 29.86 in    
Wind  
Wind Speed 15 mph ()    
Max Wind Speed 28 mph    
Max Gust Speed 40 mph    
Averages and records for this station are not official NWS values.
T = Trace of Precipitation, MM = Missing Value Source: Averaged Metar Reports

Daily Weather History Graph

Daily Weather History Graph

Search for Another Location

Airport or City:

Trip Planner

Search our weather history database for the weather conditions in past years. The results will help you decide how hot, cold, wet, or windy it might be!

Date:

Astronomy

Oct. 06, 2012 Rise Set
Actual Time 7:12 AM EDT 6:39 PM EDT
Civil Twilight 6:43 AM EDT 7:08 PM EDT
Nautical Twilight 6:10 AM EDT 7:41 PM EDT
Astronomical Twilight 5:37 AM EDT 8:15 PM EDT
Moon 10:44 PM EDT (10/6) 1:14 PM EDT (10/6)
Length of Visible Light 12h 24m
Length of Day
11h 27m
Waning Gibbous, 65% of the Moon is Illuminated
Oct 6
Waning Gibbous
Oct 8
Last Quarter
Oct 15
New
Oct 21
First Quarter
Oct 29
Full

Hourly Weather History & Observations

Time (EDT) Temp. Dew Point Humidity Pressure Visibility Wind Dir Wind Speed Gust Speed Precip Events Conditions
12:00 AM 59.9 °F 47.7 °F 64% 29.85 in - West 17.3 mph - N/A   Unknown
1:00 AM 58.1 °F 44.4 °F 60% 29.83 in - WNW 10.4 mph - N/A   Unknown
2:00 AM 50 °F 46 °F 82% 29.84 in - NW 16.1 mph - -  
2:00 AM 50.0 °F 46.2 °F 87% 29.84 in - NW 16.1 mph - 0.04 in   Unknown
3:00 AM 48.2 °F 46.2 °F 93% 29.80 in - North 9.2 mph - 0.17 in   Unknown
4:00 AM 48.6 °F 46.6 °F 93% 29.80 in - NNW 9.2 mph - 0.10 in   Unknown
5:00 AM 48 °F 46 °F 92% 29.81 in - NNW 4.6 mph - -  
5:00 AM 48.2 °F 46.4 °F 93% 29.81 in - NNW 4.6 mph - 0.06 in   Unknown
6:00 AM 49.1 °F 46.8 °F 92% 29.82 in - NW 11.5 mph 17.3 mph 0.19 in   Unknown
7:00 AM 48.7 °F 45.9 °F 90% 29.82 in - NW 11.5 mph - 0.08 in   Unknown
8:00 AM 50 °F 46 °F 79% 29.82 in - NW 12.7 mph - -  
8:00 AM 49.6 °F 45.5 °F 86% 29.82 in - NW 12.7 mph - N/A   Unknown
9:00 AM 52.9 °F 44.4 °F 73% 29.81 in - West 13.8 mph 21.9 mph N/A   Unknown
10:00 AM 53.8 °F 45.5 °F 74% 29.82 in - WNW 18.4 mph 24.2 mph N/A   Unknown
11:00 AM 56 °F 45 °F 56% 29.82 in - WNW 21.9 mph - -  
11:00 AM 56.3 °F 44.8 °F 65% 29.82 in - WNW 21.9 mph 28.8 mph N/A   Unknown
12:00 PM 57.6 °F 45.1 °F 63% 29.83 in - West 18.4 mph 28.8 mph N/A   Unknown
2:00 PM 57 °F 43 °F 48% 29.83 in - West 20.7 mph - -  
2:00 PM 56.8 °F 42.8 °F 59% 29.83 in - West 20.7 mph 32.2 mph N/A   Unknown
3:00 PM 54.9 °F 41.5 °F 61% 29.85 in - West 21.9 mph 35.7 mph N/A   Unknown
4:00 PM 54.1 °F 40.1 °F 59% 29.86 in - West 25.3 mph 40.3 mph N/A   Unknown
5:00 PM 54 °F 40 °F 49% 29.87 in - West 23.0 mph - -  
5:00 PM 54.1 °F 40.3 °F 59% 29.87 in - West 23.0 mph 34.5 mph N/A   Unknown
6:00 PM 53.6 °F 40.1 °F 60% 29.89 in - West 21.9 mph 35.7 mph N/A   Unknown
7:00 PM 53.4 °F 41.5 °F 64% 29.91 in - West 21.9 mph 34.5 mph N/A   Unknown
8:00 PM 54 °F 41 °F 52% 29.92 in - West 25.3 mph - -  
8:00 PM 53.6 °F 41.4 °F 63% 29.92 in - West 25.3 mph 39.1 mph N/A   Unknown
9:00 PM 52.3 °F 39.2 °F 61% 29.96 in - WNW 27.6 mph 35.7 mph N/A   Unknown
10:00 PM 51.1 °F 40.6 °F 67% 29.96 in - WNW 21.9 mph 28.8 mph N/A   Unknown
11:00 PM 51 °F 38 °F 52% 29.98 in - WNW 23.0 mph - -  
11:00 PM 51.1 °F 38.5 °F 62% 29.98 in - WNW 23.0 mph 32.2 mph N/A   Unknown